Weather History for KDKB - October, 2013

Change the Weather History Date:

Thursday, October 17, 2013

  Actual Average (KARR) Record (KARR)
Temperature  
Mean Temperature 46 °F 50 °F  
Max Temperature 54 °F 62 °F 77 °F (2005)
Min Temperature 39 °F 39 °F 25 °F (2003)
Degree Days  
Heating Degree Days 18 15  
Month to date heating degree days 212  
Since 1 July heating degree days 365  
Cooling Degree Days 0 0  
Month to date cooling degree days 9  
Year to date cooling degree days 656  
Moisture  
Dew Point 44 °F    
Average Humidity 87    
Maximum Humidity 92    
Minimum Humidity 70    
Precipitation  
Precipitation 0.24 in 0.10 in 1.01 in (2012)
Month to date precipitation 1.74  
Year to date precipitation 30.38  
Sea Level Pressure  
Sea Level Pressure 29.87 in    
Wind  
Wind Speed 6 mph (WSW)    
Max Wind Speed 14 mph    
Max Gust Speed 23 mph    
Visibility 7 miles    
Events Rain    
T = Trace of Precipitation, MM = Missing Value Source: NWS Daily Summary

Daily Weather History Graph

Daily Weather History Graph

Search for Another Location

Airport or City:

Trip Planner

Search our weather history database for the weather conditions in past years. The results will help you decide how hot, cold, wet, or windy it might be!

Date:

Astronomy

Oct. 17, 2013 Rise Set
Actual Time 7:09 AM CDT 6:09 PM CDT
Civil Twilight 6:41 AM CDT 6:37 PM CDT
Nautical Twilight 6:09 AM CDT 7:10 PM CDT
Astronomical Twilight 5:36 AM CDT 7:42 PM CDT
Moon 5:24 PM CDT (10/17) 5:40 AM CDT (10/17)
Length of Visible Light 11h 56m
Length of Day
10h 59m
Waxing Gibbous, 98% of the Moon is Illuminated
Oct 17
Waxing Gibbous
Oct 18
Full
Oct 26
Last Quarter
Nov 3
New
Nov 9
First Quarter

Hourly Weather History & Observations

Time (CDT) Temp. Windchill Dew Point Humidity Pressure Visibility Wind Dir Wind Speed Gust Speed Precip Events Conditions
12:15 AM 49.1 °F - 46.4 °F 90% 29.94 in 10.0 mi WSW 6.9 mph - N/A   Overcast
12:55 AM 48.9 °F - 46.4 °F 91% 29.93 in 2.5 mi West 4.6 mph - N/A   Overcast
1:15 AM 48.9 °F - 46.4 °F 91% 29.93 in 2.5 mi West 4.6 mph - N/A   Overcast
1:35 AM 49.1 °F - 46.4 °F 90% 29.93 in 2.0 mi West 3.5 mph - N/A   Overcast
1:55 AM 48.9 °F - 46.4 °F 91% 29.93 in 2.5 mi West 4.6 mph - N/A   Overcast
2:15 AM 49.1 °F - 46.4 °F 90% 29.92 in 2.0 mi West 5.8 mph - N/A   Overcast
2:35 AM 49.1 °F - 46.4 °F 90% 29.92 in 2.0 mi West 3.5 mph - N/A   Overcast
2:55 AM 48.9 °F - 46.4 °F 91% 29.91 in 2.0 mi SW 4.6 mph - N/A Rain Light Rain
3:15 AM 49.1 °F - 46.4 °F 90% 29.91 in 4.0 mi SW 5.8 mph - N/A Rain Light Rain
3:35 AM 49.1 °F - 46.4 °F 90% 29.90 in 7.0 mi SW 4.6 mph - N/A Rain Light Rain
3:55 AM 48.9 °F - 46.4 °F 91% 29.90 in 5.0 mi WSW 4.6 mph - N/A Rain Light Rain
4:15 AM 49.1 °F - 46.4 °F 90% 29.91 in 2.5 mi WSW 8.1 mph - N/A Rain Rain
4:35 AM 48.7 °F - 46.4 °F 92% 29.90 in 5.0 mi WSW 5.8 mph - 0.01 in   Drizzle
5:15 AM 48.6 °F - 46.0 °F 91% 29.89 in 5.0 mi WSW 5.8 mph - 0.01 in Rain Rain
5:35 AM 48.6 °F - 46.0 °F 91% 29.88 in 5.0 mi Calm Calm - 0.01 in Rain Light Rain
6:15 AM 48.6 °F - 46.0 °F 91% 29.87 in 5.0 mi Calm Calm - N/A   Drizzle
6:35 AM 48.6 °F - 46.0 °F 91% 29.87 in 2.5 mi West 5.8 mph - 0.01 in Rain Heavy Rain
6:55 AM 48.4 °F - 45.9 °F 91% 29.87 in 4.0 mi West 4.6 mph - 0.03 in Rain Rain
7:15 AM 48.4 °F - 45.9 °F 91% 29.87 in 5.0 mi West 5.8 mph - 0.01 in   Drizzle
7:35 AM 48.4 °F - 45.9 °F 91% 29.87 in 3.0 mi West 8.1 mph - 0.02 in Rain Light Rain
7:55 AM 48.2 °F - 45.5 °F 90% 29.87 in 2.5 mi West 8.1 mph - 0.03 in Rain Rain
8:15 AM 48.2 °F - 45.5 °F 90% 29.87 in 2.5 mi West 8.1 mph - 0.02 in Rain Rain
8:35 AM 48.4 °F - 45.9 °F 91% 29.88 in 3.0 mi West 8.1 mph - 0.04 in Rain Rain
8:55 AM 48.4 °F - 45.9 °F 91% 29.88 in 4.0 mi West 6.9 mph - 0.06 in Rain Light Rain
9:15 AM 48.6 °F - 46.0 °F 91% 29.87 in 4.0 mi WSW 8.1 mph - 0.01 in Rain Rain
9:35 AM 48.4 °F - 45.9 °F 91% 29.87 in 5.0 mi West 11.5 mph 18.4 mph 0.04 in Rain Light Rain
9:55 AM 48.2 °F - 45.7 °F 91% 29.87 in 5.0 mi West 10.4 mph 18.4 mph 0.05 in Rain Rain
10:15 AM 48.2 °F - 45.5 °F 90% 29.88 in 4.0 mi West 10.4 mph 16.1 mph 0.01 in   Drizzle
10:35 AM 48.4 °F - 45.9 °F 91% 29.88 in 7.0 mi West 9.2 mph 19.6 mph 0.02 in Rain Light Rain
10:55 AM 48.6 °F - 46.0 °F 91% 29.88 in 7.0 mi West 12.7 mph 16.1 mph 0.03 in Rain Rain
11:35 AM 48.4 °F - 45.7 °F 90% 29.88 in 7.0 mi West 13.8 mph 19.6 mph 0.01 in Rain Light Rain
11:55 AM 49.1 °F - 46.2 °F 90% 29.87 in 10.0 mi West 11.5 mph 16.1 mph 0.02 in   Light Drizzle
12:15 PM 49.6 °F - 46.6 °F 89% 29.87 in 10.0 mi West 13.8 mph - N/A Rain Light Rain
12:35 PM 49.1 °F - 45.5 °F 87% 29.86 in 10.0 mi West 9.2 mph - N/A   Mostly Cloudy
12:55 PM 49.5 °F - 46.0 °F 88% 29.85 in 10.0 mi West 10.4 mph 19.6 mph N/A   Mostly Cloudy
1:15 PM 51.4 °F - 46.4 °F 83% 29.84 in 10.0 mi West 11.5 mph 23.0 mph N/A   Mostly Cloudy
1:35 PM 50.4 °F - 45.9 °F 85% 29.84 in 10.0 mi West 11.5 mph 17.3 mph N/A   Overcast
1:55 PM 50.5 °F - 46.0 °F 85% 29.85 in 10.0 mi West 11.5 mph 17.3 mph N/A   Overcast
2:15 PM 50.5 °F - 45.9 °F 84% 29.84 in 10.0 mi West 8.1 mph - N/A   Overcast
2:35 PM 51.1 °F - 45.5 °F 81% 29.85 in 10.0 mi West 12.7 mph 18.4 mph N/A   Overcast
2:55 PM 52.5 °F - 45.7 °F 78% 29.85 in 10.0 mi WNW 13.8 mph - N/A   Overcast
3:15 PM 52.9 °F - 45.7 °F 77% 29.84 in 10.0 mi WNW 11.5 mph - N/A   Mostly Cloudy
3:55 PM 52.9 °F - 46.2 °F 78% 29.84 in 10.0 mi WNW 5.8 mph - N/A   Mostly Cloudy
4:15 PM 54.0 °F - 46.2 °F 75% 29.84 in 10.0 mi WNW 8.1 mph - N/A   Overcast
4:35 PM 54.5 °F - 45.5 °F 72% 29.84 in 10.0 mi NW 6.9 mph - N/A   Mostly Cloudy
4:55 PM 54.1 °F - 44.8 °F 71% 29.84 in 10.0 mi NW 5.8 mph - N/A   Scattered Clouds
5:15 PM 53.6 °F - 43.9 °F 70% 29.84 in 10.0 mi NW 5.8 mph - N/A   Clear
5:35 PM 52.9 °F - 44.4 °F 73% 29.84 in 10.0 mi WNW 3.5 mph - N/A   Clear
5:55 PM 51.8 °F - 44.1 °F 75% 29.85 in 10.0 mi Calm Calm - N/A   Clear
6:15 PM 49.6 °F - 43.7 °F 80% 29.85 in 10.0 mi Calm Calm - N/A   Clear
6:55 PM 46.6 °F - 41.5 °F 83% 29.86 in 10.0 mi Calm Calm - N/A   Clear
7:15 PM 45.1 °F - 41.2 °F 86% 29.87 in 10.0 mi Calm Calm - N/A   Clear
7:35 PM 45.5 °F - 41.4 °F 85% 29.87 in 10.0 mi Calm Calm - N/A   Clear
7:55 PM 43.9 °F - 40.1 °F 87% 29.87 in 10.0 mi Calm Calm - N/A   Clear
8:15 PM 45.1 °F 43.7 °F 41.0 °F 85% 29.87 in 10.0 mi SW 3.5 mph - N/A   Clear
8:35 PM 45.0 °F 43.5 °F 40.6 °F 85% 29.87 in 10.0 mi SW 3.5 mph - N/A   Clear
8:55 PM 42.3 °F 39.4 °F 38.7 °F 87% 29.87 in 10.0 mi SSW 4.6 mph - N/A   Clear
9:15 PM 41.0 °F 38.0 °F 37.6 °F 88% 29.87 in 10.0 mi SSW 4.6 mph - N/A   Clear
9:55 PM 40.6 °F 36.0 °F 37.4 °F 88% 29.87 in 10.0 mi South 6.9 mph - N/A   Clear
10:15 PM 40.1 °F 36.1 °F 36.9 °F 88% 29.87 in 10.0 mi South 5.8 mph - N/A   Clear
10:35 PM 39.4 °F 34.5 °F 36.5 °F 89% 29.87 in 10.0 mi South 6.9 mph - N/A   Clear
10:55 PM 39.2 °F 34.2 °F 36.3 °F 89% 29.87 in 10.0 mi South 6.9 mph - N/A   Clear
11:15 PM 39.4 °F 33.8 °F 36.5 °F 89% 29.87 in 10.0 mi South 8.1 mph - N/A   Clear
11:35 PM 39.2 °F 35.9 °F 36.5 °F 90% 29.86 in 10.0 mi South 4.6 mph - N/A   Clear